TimeMST,TemperatureF,Dew PointF,Humidity,Sea Level PressureIn,VisibilityMPH,Wind Direction,Wind SpeedMPH,Gust SpeedMPH,PrecipitationIn,Events,Conditions,WindDirDegrees,DateUTC
12:56 AM,42.1,21.9,45,30.02,10.0,North,11.5,-,N/A,,Clear,350,2013-03-05 07:56:00
1:56 AM,39.2,21.2,49,30.15,10.0,NW,10.4,-,N/A,,Clear,320,2013-03-05 08:56:00
2:56 AM,37.0,21.9,54,30.04,10.0,East,3.5,-,N/A,,Clear,90,2013-03-05 09:56:00
3:56 AM,37.0,21.9,54,30.04,10.0,ENE,4.6,-,N/A,,Clear,70,2013-03-05 10:56:00
4:56 AM,35.6,21.2,56,30.16,10.0,Calm,Calm,-,N/A,,Clear,0,2013-03-05 11:56:00
5:56 AM,37.9,21.9,53,30.08,10.0,North,4.6,-,N/A,,Clear,10,2013-03-05 12:56:00
6:56 AM,36.0,21.9,57,30.11,10.0,Calm,Calm,-,N/A,,Clear,0,2013-03-05 13:56:00
7:56 AM,42.1,25.0,51,30.12,10.0,Calm,Calm,-,N/A,,Clear,0,2013-03-05 14:56:00
8:56 AM,50.0,27.0,41,30.13,10.0,WSW,5.8,-,N/A,,Clear,250,2013-03-05 15:56:00
9:56 AM,59.0,26.1,28,30.11,10.0,South,5.8,-,N/A,,Clear,190,2013-03-05 16:56:00
10:56 AM,66.0,23.0,20,30.08,10.0,SE,13.8,23.0,N/A,,Clear,130,2013-03-05 17:56:00
11:56 AM,70.0,21.9,16,30.06,10.0,South,17.3,24.2,N/A,,Clear,170,2013-03-05 18:56:00
12:56 PM,70.0,19.9,15,30.03,10.0,South,9.2,23.0,N/A,,Clear,170,2013-03-05 19:56:00
1:56 PM,71.1,21.0,15,30.01,10.0,SSE,13.8,25.3,N/A,,Clear,150,2013-03-05 20:56:00
2:56 PM,71.1,21.9,16,29.97,10.0,SSE,6.9,-,N/A,,Clear,150,2013-03-05 21:56:00
3:56 PM,73.0,21.9,15,29.97,10.0,SSE,10.4,18.4,N/A,,Clear,150,2013-03-05 22:56:00
4:56 PM,71.1,21.9,16,29.97,10.0,SE,6.9,-,N/A,,Clear,140,2013-03-05 23:56:00
5:56 PM,70.0,15.1,12,29.97,10.0,SSW,12.7,-,N/A,,Clear,200,2013-03-06 00:56:00
6:56 PM,62.1,19.0,19,30.03,10.0,SW,6.9,-,N/A,,Clear,220,2013-03-06 01:56:00
7:56 PM,60.1,19.9,21,30.03,10.0,SSE,4.6,-,N/A,,Clear,160,2013-03-06 02:56:00
8:56 PM,62.1,21.0,21,30.01,10.0,South,10.4,-,N/A,,Mostly Cloudy,180,2013-03-06 03:56:00
9:22 PM,60.8,21.2,22,30.09,10.0,SE,9.2,-,N/A,,Mostly Cloudy,130,2013-03-06 04:22:00
9:56 PM,61.0,23.0,23,29.98,10.0,East,5.8,-,N/A,,Clear,100,2013-03-06 04:56:00
10:56 PM,60.1,23.0,24,29.97,10.0,SSW,3.5,-,N/A,,Clear,210,2013-03-06 05:56:00
11:56 PM,60.1,23.0,24,29.95,10.0,ESE,3.5,-,N/A,,Clear,110,2013-03-06 06:56:00